User: anonymous
Location: Vale
(35.4830°N, 81.3830°W)
Time: 23:12:35
(UTC-04:00)
Language:

Oscar 11 - Orbit

View from above orbital plane
View from above orbital plane
View from above satellite
View from above satellite

Ground track
Ground track

The orbit data is extracted from the following two-line orbital elements,

1 14781U 84021B   14294.72090050  .00001691  00000-0  22044-3 0  6426
2 14781 097.8369 352.2897 0009993 126.1287 234.0853 14.81820572646704
Epoch (UTC): 21 October 2014 17:18:05
Eccentricity: 0.0009993
inclination: 97.8369°
perigee height: 616 km
apogee height: 630 km
right ascension of ascending node: 352.2897°
argument of perigee: 126.1287°
revolutions per day: 14.81820572
mean anomaly at epoch: 234.0853°
orbit number at epoch: 64670

The dashed part of the orbit path shows where the satellite is in the earth's shadow,  

DLR